Regional Weather Roundup
Issued by NWS San Diego, CA

Home | Current Version | Previous Version | Text Only | Print | Product List | Glossary On
Versions: 1 2 3 4 5 6 7 8 9 10 11 12 13 14 15 16 17 18 19 20 21 22 23 24 25 26 27 28 29 30 31 32 33 34 35 36 37 38 39 40 41 42 43 44 45 46 47 48 49 50
000
ASUS46 KSGX 301410
RWRSGX

SAN DIEGO HOURLY WEATHER ROUNDUP
NATIONAL WEATHER SERVICE SAN DIEGO CA
700 AM PDT THU OCT 30 2014

NOTE: "FAIR" INDICATES FEW OR NO CLOUDS BELOW 12,000 FEET WITH NO
SIGNIFICANT WEATHER AND/OR OBSTRUCTIONS TO VISIBILITY.

CAZ042-043-060-061-PZZ750-775-301500-

GREATER SAN DIEGO AREA

CITY           SKY/WX    TMP DP  RH WIND       PRES   REMARKS
LINDBERGH FLD  MOCLDY    62  57  83 CALM      29.99S
POINT LOMA       N/A     61  59  94 N3          N/A
NATIONAL CITY    N/A     58  55  89 CALM      29.98S
CHULA VISTA      N/A     56  53  89 CALM      29.91S
IMPERIAL BEACH MOCLDY    57  53  86 E7        29.97S
BROWN FIELD    PTCLDY    56  48  74 SE6       29.98S
MIRAMAR MCAS   MOCLDY    55  52  89 E7        29.97F
MONTGOMERY FLD PTCLDY    57  55  93 CALM      29.97F FOG

$$

NORTH SAN DIEGO COUNTY

CITY           SKY/WX    TMP DP  RH WIND       PRES   REMARKS
CAMP PENDLETON PTCLDY    53  47  79 CALM      29.98S
OCEANSIDE AP   PTCLDY    54  49  83 NE5       29.97S
OCEANSIDE HBR    N/A     56  54  93 NE3       29.99F
VISTA            N/A     53  50  89 CALM      29.95S
CARLSBAD       PTCLDY    59  52  77 E3        29.96S
DEL MAR          N/A     57  56  95 CALM      29.99F
LA JOLLA SCRIP   N/A     60  60  99 CALM      29.94F
FALLBROOK        N/A     55  55  97 CALM      29.97S
ESCONDIDO        N/A     55  50  85 CALM      30.00S
SAN MARCOS       N/A     58  54  85 CALM      29.95S
POWAY            N/A     50  47  90 CALM      30.00S

$$

EAST SAN DIEGO COUNTY

CITY           SKY/WX    TMP DP  RH WIND       PRES   REMARKS
RAMONA         PTCLDY    45  38  76 CALM      30.00S
SANTEE LAKES     N/A     52  50  93 CALM      30.00S
LA MESA          N/A     59  52  79 CALM      29.92R
JAMUL            N/A     51  48  89 CALM      29.98R
DESCANSO N       N/A     61  28  28 CALM      29.87S
CAMPO            N/A     46  27  47 NE6       30.02R

$$

ORANGE COUNTY AND THE LOS ANGELES BASIN

CITY           SKY/WX    TMP DP  RH WIND       PRES   REMARKS
JOHN WAYNE AP  MOCLDY    63  56  78 CALM      29.96F
LAKE FOREST FR   N/A     61  37  41 CALM      29.87F
SANTA ANA        N/A     56  52  86 CALM      29.92F
HUNTINGTON BCH   N/A     55  54  95 CALM      29.99F
LOS ALAMITOS   MOCLDY    56  54  95 CALM      29.97S
FULLERTON      PTCLDY    60  55  83 CALM      29.96F
LONG BEACH     PTCLDY    60  56  86 NW3       29.97S
L.A. AP        MOCLDY    64  61  90 CALM      29.97F
L.A. DOWNTOWN  PTCLDY    62  53  72 CALM      29.97S

$$

THE INLAND EMPIRE

CITY           SKY/WX    TMP DP  RH WIND       PRES   REMARKS
CORONA         CLOUDY    47  42  82 CALM      30.00S
CHINO          MOCLDY    53  49  86 CALM      30.00S
ONTARIO        MOCLDY    60  48  64 CALM      29.99S
SAN BERNARDINO MOCLDY    54  37  54 CALM      30.00
RIVERSIDE AP   PTCLDY    56  48  74 E3        30.00S
RIV CYN CREST    N/A     58  56  92 SE1       29.97R
MORENO VALLEY    N/A     59  46  62 CALM      29.20S
MARCH ARB      PTCLDY    50  43  78 CALM      30.01S
HORSETHIEF CYN   N/A     57  34  42 SW3       30.00R
PERRIS           N/A     55  48  76 CALM      30.01S
MENIFEE          N/A     53  49  85 CALM      30.07R
HEMET EAST       N/A     61  25  24 CALM      29.96S
FRENCH VALLEY  FAIR      52  45  76 CALM      30.01S
TEMECULA         N/A     51  46  86 CALM      29.98S

$$

SAN BERNARDINO AND RIVERSIDE COUNTY MOUNTAINS

CITY           SKY/WX    TMP DP  RH WIND       PRES   REMARKS
BIG BEAR AP    PTCLDY    28   9  43 CALM      30.26R
ANGELUS OAKS     N/A     48  14  25 CALM      29.95S
PINE COVE        N/A     56 -11   6 CALM      29.88S

$$

SOUTHERN DESERT INCLUDING THE COACHELLA VALLEY

CITY           SKY/WX    TMP DP  RH WIND       PRES   REMARKS
PALM SPRINGS   PTCLDY    64  34  32 MISG      29.99R
THOUSAND PALMS   N/A     61  33  35 NW2       29.93S
PALM DESERT      N/A     58  43  56 CALM      26.71
THERMAL        PTCLDY    50  38  63 N6        29.93S
BLYTHE         CLEAR     62  27  26 SW9       29.98R
IMPERIAL AP    MOCLDY    59  34  39 W3        29.93S
EL CENTRO NAS  MOCLDY    59  26  28 W9        29.93S
YUMA AZ        MOCLDY    68  34  28 NE8       29.94R
MEXICALI       PTCLDY    59  28  31 NW5       29.94

$$

UPPER DESERT

CITY           SKY/WX    TMP DP  RH WIND       PRES   REMARKS
VICTORVILLE AP PTCLDY    48  25  40 S6        30.07S
HESPERIA         N/A     50  29  44 CALM      30.14S
APPLE VALLEY     N/A     40  33  76 CALM      30.17R
PALMDALE       MOCLDY    49  24  37 W3        30.07S
LANCASTER      MOCLDY    42  15  33 W3        30.07S
EDWARDS AFB    MOCLDY    44  10  24 N1        30.05S
DAGGETT        PTCLDY    53  18  25 W7        30.05R
29 PALMS N     PTCLDY    52  26  36 W7        30.13R
NEEDLES        CLEAR     60  20  21 W6        30.01R

$$

REGIONAL REPORTS

CITY           SKY/WX    TMP DP  RH WIND       PRES   REMARKS
SANTA BARBARA  PTCLDY    54  49  83 CALM      29.96R
SANDBERG       PTCLDY    63  18  17 E3        30.14S
MT. WILSON       N/A     55  25  30 E7          N/A
LAS VEGAS NV   PTCLDY    58  21  24 SW5       30.06R
PHOENIX AZ     PTCLDY    67  44  43 E7        30.00R
TIJUANA        CLOUDY    57  46  67 E3        30.01R
ENSENADA NW      N/A     63  32  31 NE2       29.95S

$$

OFFSHORE ISLANDS

CITY           SKY/WX    TMP DP  RH WIND       PRES   REMARKS
CATALINA ARPT  PTCLDY    69  38  32 W3        30.01R
SAN CLEMENTE I MOCLDY    63  57  82 E8        29.98
SAN NICOLAS IS FOG       59  56  89 CALM      29.97S VSB 3/4

$$

MARINE AND OFFSHORE BUOY REPORTS

STATION/POSITION SKY/WX   TEMP    WIND        PRES    SWELL
                          AIR SEA DIR/SP/G            HT/PER/DIR
                          (F)     (DEG/KT/KT) (MB)    (FT/S/D)
TANNER BANKS               65 67  280/  2/  4 1015.0R   5/300/12
S CLEMENTE BASIN           69 70   30/  8/  8 1014.6F   3/270/13
SAN NICOLAS IS.               65                N/A     5/290/11
SO. S. ROSA ISLA           64 67  130/  4/  6 1014.0R   5/11
W. S. BARBARA CH           59 63  120/  8/ 10 1013.7S   7/310/11
S. MONICA BASIN            66 68   CALM  /  2 1014.9R   2/210/12
S PEDRO CHANNEL               69                N/A     2/260/13
DANA POINT                    70                N/A     2/200/13
CMP PENDLETON NS              70                N/A     2/220/13
OCEANSIDE OFFSHR              70                N/A     2/200/13
TORREY PINES OTR              71                N/A     2/220/13
LA JOLLA 1                 61 70   70/  4/  5 1014.8F
MISSION BAY BUOY              70                N/A     2/230/12
SAN DIEGO BAY                 73              1015.5F
POINT LOMA SOUTH              71                N/A     2/220/12

$$




USA.gov is the U.S. government's official web portal to all federal, state and local government web resources and services.